When you browse on this site, cookies collect data to enhance your experience and personalize the content and advertising you see.
Visit our Privacy Policy to learn more. By continuing to use the site, you agree to this use of cookies and data.
  • In Österreich
  • Länderverzeichnis
  • Für 7 Tage
  • Wassertemperatur
  • Satellitenkarten
  • Wetterkarte
  • News
  • Widgets
  • user-avatar
    Anmelden

    Stündliche Wetter Brzeziny

    Heute, 21 Januar, Montag

    Zeit Temperatur Niederschläge Wind Luftdruck Luftfeuchtigkeit
    00:00 -3°C° 0 mm 1 m/S 754 mmHg 73%
    01:00 -5°C° 0 mm 2 m/S 754 mmHg 78%
    02:00 -5°C° 0 mm 2 m/S 754 mmHg 79%
    03:00 -3°C° 0 mm 1 m/S 754 mmHg 80%
    04:00 -3°C° 0 mm 1 m/S 754 mmHg 81%
    05:00 -4°C° 0 mm 1 m/S 754 mmHg 81%
    06:00 -4°C° 0 mm 1 m/S 754 mmHg 82%
    07:00 -6°C° 0 mm 2 m/S 754 mmHg 87%
    08:00 -6°C° 0 mm 2 m/S 754 mmHg 84%
    09:00 -5°C° 0 mm 2 m/S 754 mmHg 81%
    10:00 -5°C° 0 mm 2 m/S 754 mmHg 78%
    11:00 -4°C° 0 mm 2 m/S 754 mmHg 75%
    12:00 -3°C° 0 mm 2 m/S 754 mmHg 71%
    13:00 -3°C° 0 mm 2 m/S 754 mmHg 68%
    14:00 -3°C° 0 mm 2 m/S 754 mmHg 70%
    15:00 -3°C° 0 mm 2 m/S 753 mmHg 73%
    16:00 -4°C° 0 mm 2 m/S 753 mmHg 75%
    17:00 -4°C° 0 mm 2 m/S 753 mmHg 75%
    18:00 -4°C° 0 mm 2 m/S 753 mmHg 76%
    19:00 -4°C° 0 mm 2 m/S 752 mmHg 76%
    20:00 -4°C° 0 mm 2 m/S 752 mmHg 76%
    21:00 -5°C° 0 mm 2 m/S 752 mmHg 76%
    22:00 -5°C° 0 mm 2 m/S 752 mmHg 75%
    23:00 -5°C° 0 mm 2 m/S 752 mmHg 76%

    Morgen, 22 Januar, Dienstag

    Zeit Temperatur Niederschläge Wind Luftdruck Luftfeuchtigkeit
    00:00 -5°C° 0 mm 2 m/S 751 mmHg 76%
    01:00 -5°C° 0 mm 2 m/S 751 mmHg 76%
    02:00 -4°C° 0 mm 2 m/S 751 mmHg 77%
    03:00 -4°C° 0 mm 2 m/S 750 mmHg 77%
    04:00 -4°C° 0 mm 2 m/S 750 mmHg 77%
    05:00 -5°C° 0 mm 2 m/S 750 mmHg 78%
    06:00 -5°C° 0 mm 2 m/S 749 mmHg 78%
    07:00 -3°C° 0 mm 1 m/S 749 mmHg 79%
    08:00 -3°C° 0 mm 1 m/S 749 mmHg 76%
    09:00 -2°C° 0 mm 1 m/S 749 mmHg 74%
    10:00 -2°C° 0 mm 1 m/S 749 mmHg 71%
    11:00 -1°C° 0 mm 1 m/S 748 mmHg 67%
    12:00 -1°C° 0 mm 1 m/S 748 mmHg 63%
    13:00 0°C° 0 mm 1 m/S 747 mmHg 59%
    14:00 -1°C° 0 mm 1 m/S 747 mmHg 62%
    15:00 -1°C° 0 mm 1 m/S 746 mmHg 64%
    16:00 -1°C° 0 mm 1 m/S 746 mmHg 67%
    17:00 -4°C° 0 mm 2 m/S 746 mmHg 69%
    18:00 -4°C° 0 mm 2 m/S 746 mmHg 71%
    19:00 -4°C° 0 mm 2 m/S 746 mmHg 73%
    20:00 -4°C° 0 mm 2 m/S 745 mmHg 75%
    21:00 -4°C° 0 mm 2 m/S 745 mmHg 77%
    22:00 -6°C° 0 mm 3 m/S 745 mmHg 79%
    23:00 -6°C° 0 mm 3 m/S 744 mmHg 80%

    übermorgen, 23 Januar, Mittwoch

    Zeit Temperatur Niederschläge Wind Luftdruck Luftfeuchtigkeit
    00:00 -6°C° 0 mm 3 m/S 744 mmHg 80%
    01:00 -6°C° 0 mm 3 m/S 744 mmHg 81%
    02:00 -6°C° 0 mm 3 m/S 744 mmHg 82%
    03:00 -7°C° 0 mm 3 m/S 743 mmHg 82%
    04:00 -7°C° 0 mm 3 m/S 743 mmHg 83%
    05:00 -7°C° 0 mm 3 m/S 743 mmHg 85%
    06:00 -7°C° 0 mm 3 m/S 743 mmHg 87%
    07:00 -9°C° 0 mm 4 m/S 743 mmHg 89%
    08:00 -8°C° 0 mm 4 m/S 743 mmHg 86%
    09:00 -8°C° 0 mm 4 m/S 743 mmHg 83%
    10:00 -8°C° 0 mm 4 m/S 743 mmHg 80%
    11:00 -7°C° 0 mm 4 m/S 743 mmHg 78%
    12:00 -5°C° 0 mm 4 m/S 743 mmHg 75%
    13:00 -5°C° 0 mm 4 m/S 743 mmHg 72%
    14:00 -5°C° 0 mm 4 m/S 743 mmHg 72%
    15:00 -5°C° 0 mm 4 m/S 743 mmHg 73%
    16:00 -5°C° 0 mm 4 m/S 743 mmHg 73%
    17:00 -5°C° 0 mm 4 m/S 744 mmHg 74%
    18:00 -7°C° 0 mm 4 m/S 744 mmHg 76%
    19:00 -7°C° 0 mm 4 m/S 744 mmHg 77%
    20:00 -7°C° 0 mm 4 m/S 745 mmHg 78%
    21:00 -8°C° 0 mm 4 m/S 745 mmHg 79%
    22:00 -8°C° 0 mm 4 m/S 746 mmHg 80%
    23:00 -7°C° 0 mm 3 m/S 746 mmHg 80%

    24 Januar, Donnerstag

    Zeit Temperatur Niederschläge Wind Luftdruck Luftfeuchtigkeit
    00:00 -7°C° 0 mm 3 m/S 746 mmHg 81%
    01:00 -7°C° 0 mm 3 m/S 746 mmHg 81%
    02:00 -7°C° 0 mm 3 m/S 746 mmHg 81%
    03:00 -7°C° 0 mm 3 m/S 746 mmHg 82%
    04:00 -8°C° 0 mm 3 m/S 746 mmHg 82%
    05:00 -8°C° 0 mm 3 m/S 747 mmHg 82%
    06:00 -8°C° 0 mm 3 m/S 747 mmHg 82%
    07:00 -7°C° 0 mm 2 m/S 747 mmHg 82%
    08:00 -7°C° 0 mm 3 m/S 748 mmHg 79%
    09:00 -7°C° 0 mm 3 m/S 748 mmHg 77%
    10:00 -7°C° 0 mm 3 m/S 748 mmHg 75%
    11:00 -6°C° 0 mm 3 m/S 748 mmHg 73%
    12:00 -6°C° 0 mm 3 m/S 748 mmHg 72%
    13:00 -5°C° 0 mm 3 m/S 748 mmHg 70%
    14:00 -5°C° 0 mm 3 m/S 748 mmHg 71%
    15:00 -5°C° 0 mm 3 m/S 748 mmHg 72%
    16:00 -4°C° 0 mm 2 m/S 748 mmHg 73%
    17:00 -5°C° 0 mm 2 m/S 748 mmHg 75%
    18:00 -5°C° 0 mm 2 m/S 749 mmHg 77%
    19:00 -5°C° 0 mm 2 m/S 749 mmHg 79%
    20:00 -5°C° 0 mm 2 m/S 749 mmHg 80%
    21:00 -6°C° 0 mm 2 m/S 749 mmHg 82%
    22:00 -6°C° 0 mm 2 m/S 749 mmHg 83%
    23:00 -6°C° 0 mm 2 m/S 749 mmHg 83%

    25 Januar, Freitag

    Zeit Temperatur Niederschläge Wind Luftdruck Luftfeuchtigkeit
    00:00 -6°C° 0 mm 2 m/S 749 mmHg 82%
    01:00 -6°C° 0 mm 2 m/S 749 mmHg 82%
    02:00 -6°C° 0 mm 2 m/S 749 mmHg 81%
    03:00 -4°C° 0 mm 1 m/S 749 mmHg 80%
    04:00 -4°C° 0 mm 1 m/S 749 mmHg 80%
    05:00 -4°C° 0 mm 1 m/S 749 mmHg 78%
    06:00 -4°C° 0 mm 1 m/S 749 mmHg 77%
    07:00 -4°C° 0 mm 1 m/S 749 mmHg 76%
    08:00 -3°C° 0 mm 1 m/S 750 mmHg 75%
    09:00 -3°C° 0 mm 1 m/S 750 mmHg 74%
    10:00 -4°C° 0 mm 0 m/S 750 mmHg 73%
    11:00 -4°C° 0 mm 0 m/S 750 mmHg 71%
    12:00 -4°C° 0 mm 0 m/S 750 mmHg 69%
    13:00 -3°C° 0 mm 0 m/S 750 mmHg 67%
    14:00 -3°C° 0 mm 0 m/S 750 mmHg 67%
    15:00 -3°C° 0 mm 0 m/S 750 mmHg 68%
    16:00 -2°C° 0 mm 1 m/S 750 mmHg 68%
    17:00 -2°C° 0 mm 1 m/S 750 mmHg 70%
    18:00 -3°C° 0 mm 1 m/S 750 mmHg 72%
    19:00 -3°C° 0 mm 1 m/S 750 mmHg 73%
    20:00 -4°C° 0 mm 0 m/S 750 mmHg 74%
    21:00 -4°C° 0 mm 0 m/S 750 mmHg 75%
    22:00 -4°C° 0 mm 0 m/S 750 mmHg 77%
    23:00 -5°C° 0 mm 0 m/S 750 mmHg 78%

    26 Januar, Samstag

    Zeit Temperatur Niederschläge Wind Luftdruck Luftfeuchtigkeit
    00:00 -5°C° 0 mm 0 m/S 750 mmHg 79%
    01:00 -5°C° 0 mm 0 m/S 749 mmHg 80%
    02:00 -4°C° 0 mm 1 m/S 749 mmHg 81%
    03:00 -4°C° 0 mm 1 m/S 749 mmHg 82%
    04:00 -6°C° 0 mm 1 m/S 749 mmHg 84%
    05:00 -6°C° 0 mm 1 m/S 748 mmHg 84%
    06:00 -7°C° 0 mm 2 m/S 748 mmHg 85%
    07:00 -7°C° 0 mm 2 m/S 748 mmHg 86%
    08:00 -7°C° 0 mm 3 m/S 748 mmHg 83%
    09:00 -8°C° 0 mm 4 m/S 747 mmHg 79%
    10:00 -7°C° 0 mm 4 m/S 747 mmHg 76%
    11:00 -5°C° 0 mm 4 m/S 746 mmHg 72%
    12:00 -5°C° 0 mm 5 m/S 746 mmHg 67%
    13:00 -5°C° 0 mm 5 m/S 745 mmHg 63%
    14:00 -4°C° 0 mm 5 m/S 744 mmHg 62%
    15:00 -3°C° 0 mm 4 m/S 744 mmHg 61%
    16:00 -3°C° 0 mm 4 m/S 743 mmHg 60%
    17:00 -4°C° 0 mm 5 m/S 743 mmHg 61%
    18:00 -4°C° 0 mm 5 m/S 743 mmHg 62%
    19:00 -4°C° 0 mm 5 m/S 742 mmHg 63%
    20:00 -4°C° 0 mm 5 m/S 742 mmHg 70%
    21:00 -4°C° 0 mm 5 m/S 741 mmHg 76%
    22:00 -4°C° 0 mm 5 m/S 741 mmHg 83%
    23:00 -2°C° 0 mm 5 m/S 740 mmHg 85%
    Mehr zeigen